Home   Weather   Fort St. John   Past weeks

Flag for Canada Past Weather in Fort St. John, British Columbia, Canada — Yesterday and Last 2 Weeks

Now
3 °F

Mostly cloudy.


Feels Like: -6 °F
Forecast: 7 / 14 °F
Wind: 5 mph from Northeast

Location: Fort St John

Current Time: Jan 22, 2017 at 3:34:46 am

Latest Report: Jan 22, 2017 at 2:00 am


Visibility: 15 mi

Pressure: 30.13 "Hg (27.50 "Hg at 689m altitude)

Humidity: 85%

Dew Point: 0 °F

Location of Fort St. JohnLocation

Past Weather in Fort St. John — Graph

°F

Fort St. John Temperature Yesterday

Maximum temperature yesterday: 7 °F (at 12:00 am)
Minimum temperature yesterday: 1 °F (at 8:00 am)
Average temperature yesterday: 3 °F

High & Low Weather Summary for the Past Weeks

 TemperatureHumidityPressure
High43 °F (Jan 16, 1:00 pm)100% (Jan 18, 9:00 am)30.73 "Hg (Jan 18, 9:00 am)
Low-9 °F (Jan 7, 2:00 pm)56% (Jan 15, 1:00 pm)29.07 "Hg (Jan 18, 2:00 pm)
Average16 °F75%29.82 "Hg
* Reported Jan 7 2:00 am — Jan 22 2:00 am, Fort St. John, Weather by CustomWeather, © 2017

Note: Actual official high and low records may vary slightly from our data, if they occured in-between our weather recording intervals... More about our weather records

Advertising

Fort St. John Weather History for the Previous 24 Hours

Scroll right to see more
 ConditionsComfort  
Time TempWeatherWind HumidityBarometerVisibility
2:00 am
Sun, Jan 22
3 °FMostly cloudy.5 mph85%30.13 "Hg15 mi
1:00 am3 °FMostly cloudy.3 mph85%30.14 "Hg15 mi
12:14 am3 °FMostly cloudy.2 mph78%30.14 "Hg15 mi
11:00 pm
Sat, Jan 21
3 °FLight snow. Overcast.3 mph78%30.12 "Hg3 mi
10:00 pm3 °FLight snow. Overcast.5 mph78%30.11 "Hg15 mi
9:00 pm3 °FLight snow. Overcast.5 mph78%30.11 "Hg15 mi
8:00 pm3 °FOvercast.6 mph72%30.10 "Hg15 mi
7:00 pm3 °FLight snow. Overcast.7 mph72%30.08 "Hg15 mi
6:00 pm3 °FOvercast.8 mph72%30.07 "Hg15 mi
5:00 pm3 °FOvercast.7 mph72%30.05 "Hg15 mi
4:00 pm3 °FOvercast.8 mph66%30.03 "Hg15 mi
3:42 pm3 °FOvercast.9 mph66%30.03 "Hg15 mi
3:00 pm3 °FLight snow. Overcast.10 mph66%30.01 "Hg15 mi
2:00 pm1 °FLight snow. Overcast.12 mph71%30.01 "Hg15 mi
1:00 pm1 °FLight snow. Overcast.14 mph65%29.99 "Hg15 mi
12:00 pm1 °FLight snow. Mostly cloudy.16 mph65%29.98 "Hg15 mi
11:00 am1 °FLight snow. Mostly cloudy.12 mph71%29.98 "Hg15 mi
10:00 am1 °FLight snow. Mostly cloudy.14 mph71%29.96 "Hg15 mi
9:00 am1 °FLight snow. Overcast.13 mph71%29.92 "Hg15 mi
8:00 am1 °FLight snow. Overcast.14 mph71%29.90 "Hg10 mi
7:00 am3 °FLight snow. Overcast.17 mph72%29.86 "Hg15 mi
6:00 am3 °FLight snow. Overcast.13 mph78%29.83 "Hg15 mi
5:00 am5 °FLight snow. Overcast.15 mph72%29.80 "Hg15 mi
4:00 am5 °FLight snow. Overcast.15 mph72%29.77 "Hg15 mi
3:00 am5 °FLight snow. Mostly cloudy.22 mph78%29.72 "Hg15 mi
Weather by CustomWeather, © 2017

See weather overviewHow to use our weather pages